Time,TemperatureF,DewpointF,PressureIn,WindDirection,WindDirectionDegrees,WindSpeedMPH,WindSpeedGustMPH,Humidity,HourlyPrecipIn,Conditions,Clouds,dailyrainin,SolarRadiationWatts/m^2,SoftwareType,DateUTC
2013-08-15 00:02:00,58.0,56.0,-100.00,NNE,31,2.0,3.0,94,0.00,,,0.00,0.000000,,2013-08-15 05:02:00,
2013-08-15 00:42:00,58.0,56.0,-100.00,NE,35,2.0,4.0,92,0.00,,,0.00,0.000000,,2013-08-15 05:42:00,
2013-08-15 00:52:00,58.0,56.0,-100.00,NE,35,2.0,4.0,92,0.00,,,0.00,0.000000,,2013-08-15 05:52:00,
2013-08-15 01:02:00,58.0,56.0,-100.00,NE,35,2.0,4.0,92,0.00,,,0.00,0.000000,,2013-08-15 06:02:00,
2013-08-15 01:42:00,56.0,54.0,-100.00,NE,35,2.0,4.0,94,0.00,,,0.00,0.000000,,2013-08-15 06:42:00,
2013-08-15 01:52:00,56.0,54.0,-100.00,NE,35,2.0,4.0,94,0.00,,,0.00,0.000000,,2013-08-15 06:52:00,
2013-08-15 02:02:00,56.0,54.0,-100.00,NE,35,2.0,4.0,94,0.00,,,0.00,0.000000,,2013-08-15 07:02:00,
2013-08-15 02:42:00,56.0,54.0,-100.00,NNE,27,2.0,4.0,94,0.00,,,0.00,0.000000,,2013-08-15 07:42:00,
2013-08-15 02:52:00,56.0,54.0,-100.00,NNE,27,2.0,4.0,94,0.00,,,0.00,0.000000,,2013-08-15 07:52:00,
2013-08-15 03:02:00,56.0,54.0,-100.00,NNE,27,2.0,4.0,94,0.00,,,0.00,0.000000,,2013-08-15 08:02:00,
2013-08-15 03:42:00,55.0,54.0,-100.00,NNE,28,2.0,5.0,95,0.01,,,0.01,0.000000,,2013-08-15 08:42:00,
2013-08-15 03:52:00,55.0,54.0,-100.00,NNE,28,2.0,5.0,95,0.01,,,0.01,0.000000,,2013-08-15 08:52:00,
2013-08-15 04:01:00,55.0,54.0,-100.00,NNE,28,2.0,5.0,95,0.01,,,0.01,0.000000,,2013-08-15 09:01:00,
2013-08-15 04:42:00,54.0,53.0,-100.00,NNE,21,3.0,4.0,97,0.00,,,0.01,0.000000,,2013-08-15 09:42:00,
2013-08-15 04:53:00,54.0,53.0,-100.00,NNE,21,3.0,4.0,97,0.00,,,0.01,0.000000,,2013-08-15 09:53:00,
2013-08-15 05:03:00,54.0,53.0,-100.00,NNE,21,3.0,4.0,97,0.00,,,0.01,0.000000,,2013-08-15 10:03:00,
2013-08-15 05:42:00,53.0,53.0,-100.00,NNE,27,2.0,4.0,99,0.00,,,0.01,0.000000,,2013-08-15 10:42:00,
2013-08-15 05:52:00,53.0,53.0,-100.00,NNE,27,2.0,4.0,99,0.00,,,0.01,0.000000,,2013-08-15 10:52:00,
2013-08-15 06:02:00,53.0,53.0,-100.00,NNE,27,2.0,4.0,99,0.00,,,0.01,0.000000,,2013-08-15 11:02:00,
2013-08-15 06:42:00,53.0,53.0,-100.00,NNE,22,2.0,4.0,100,0.00,,,0.01,1.000000,,2013-08-15 11:42:00,
2013-08-15 06:52:00,53.0,53.0,-100.00,NNE,22,2.0,4.0,100,0.00,,,0.01,1.000000,,2013-08-15 11:52:00,
2013-08-15 07:01:00,53.0,53.0,-100.00,NNE,22,2.0,4.0,100,0.00,,,0.01,1.000000,,2013-08-15 12:01:00,
2013-08-15 07:42:00,54.0,54.0,-100.00,NNE,13,3.0,4.0,100,0.00,,,0.01,18.000000,,2013-08-15 12:42:00,
2013-08-15 07:52:00,54.0,54.0,-100.00,NNE,13,3.0,4.0,100,0.00,,,0.01,18.000000,,2013-08-15 12:52:00,
2013-08-15 08:01:00,54.0,54.0,-100.00,NNE,13,3.0,4.0,100,0.00,,,0.01,18.000000,,2013-08-15 13:01:00,
2013-08-15 08:42:00,58.0,57.0,-100.00,North,8,2.0,5.0,98,0.00,,,0.01,45.000000,,2013-08-15 13:42:00,
2013-08-15 08:52:00,58.0,57.0,-100.00,North,8,2.0,5.0,98,0.00,,,0.01,45.000000,,2013-08-15 13:52:00,
2013-08-15 09:01:00,58.0,57.0,-100.00,North,8,2.0,5.0,98,0.00,,,0.01,45.000000,,2013-08-15 14:01:00,
2013-08-15 09:47:00,65.0,60.0,-100.00,North,359,3.0,6.0,83,0.00,,,0.01,256.000000,,2013-08-15 14:47:00,
2013-08-15 10:04:00,65.0,60.0,-100.00,North,359,3.0,6.0,83,0.00,,,0.01,256.000000,,2013-08-15 15:04:00,
2013-08-15 10:54:00,72.0,60.0,-100.00,North,359,3.0,7.0,67,0.00,,,0.01,560.000000,,2013-08-15 15:54:00,
2013-08-15 11:03:00,72.0,60.0,-100.00,North,359,3.0,7.0,67,0.00,,,0.01,560.000000,,2013-08-15 16:03:00,
2013-08-15 11:06:00,74.0,59.0,-100.00,NNE,16,4.0,7.0,59,0.00,,,0.01,637.000000,,2013-08-15 16:06:00,
2013-08-15 11:44:00,74.0,59.0,-100.00,NNE,16,4.0,7.0,59,0.00,,,0.01,637.000000,,2013-08-15 16:44:00,
2013-08-15 11:55:00,74.0,59.0,-100.00,NNE,16,4.0,7.0,59,0.00,,,0.01,637.000000,,2013-08-15 16:55:00,
2013-08-15 12:06:00,77.0,61.0,-100.00,NE,41,3.0,8.0,58,0.00,,,0.01,727.000000,,2013-08-15 17:06:00,
2013-08-15 12:55:00,77.0,61.0,-100.00,NE,41,3.0,8.0,58,0.00,,,0.01,727.000000,,2013-08-15 17:55:00,
2013-08-15 13:00:00,-999.0,-99.9,-100.00,NE,41,3.0,8.0,-999,-99.99,,,-99.99,727.000000,,2013-08-15 18:00:00,
2013-08-15 13:06:00,-999.0,-99.9,-100.00,NNE,22,4.0,9.0,-999,0.00,,,0.01,686.000000,,2013-08-15 18:06:00,
2013-08-15 13:40:00,-999.0,-99.9,-100.00,NNE,22,4.0,9.0,58,0.00,,,0.01,686.000000,,2013-08-15 18:40:00,
2013-08-15 13:49:00,78.0,62.0,-100.00,NNE,22,4.0,9.0,58,0.00,,,0.01,686.000000,,2013-08-15 18:49:00,
2013-08-15 14:06:00,78.0,62.0,-100.00,North,7,3.0,9.0,58,0.00,,,0.01,584.000000,,2013-08-15 19:06:00,
2013-08-15 14:34:00,-999.0,-99.9,-100.00,North,7,3.0,9.0,-999,-99.99,,,-99.99,584.000000,,2013-08-15 19:34:00,
2013-08-15 14:49:00,78.0,62.0,-100.00,North,7,3.0,9.0,58,0.00,,,0.01,584.000000,,2013-08-15 19:49:00,
2013-08-15 15:06:00,80.0,64.0,-100.00,North,11,4.0,8.0,58,0.00,,,0.01,528.000000,,2013-08-15 20:06:00,
2013-08-15 15:46:00,80.0,64.0,-100.00,North,11,4.0,8.0,58,0.00,,,0.01,528.000000,,2013-08-15 20:46:00,
2013-08-15 16:01:00,80.0,64.0,-100.00,North,11,4.0,8.0,58,0.00,,,0.01,528.000000,,2013-08-15 21:01:00,
2013-08-15 16:06:00,78.0,63.0,-100.00,NNE,20,4.0,7.0,60,0.00,,,0.01,378.000000,,2013-08-15 21:06:00,
2013-08-15 16:49:00,78.0,63.0,-100.00,NNE,20,4.0,7.0,60,0.00,,,0.01,378.000000,,2013-08-15 21:49:00,
2013-08-15 16:57:00,78.0,63.0,-100.00,NNE,20,4.0,7.0,60,0.00,,,0.01,378.000000,,2013-08-15 21:57:00,
2013-08-15 17:06:00,78.0,63.0,-100.00,North,1,5.0,8.0,61,0.00,,,0.01,366.000000,,2013-08-15 22:06:00,
2013-08-15 17:49:00,78.0,63.0,-100.00,North,1,5.0,8.0,61,0.00,,,0.01,366.000000,,2013-08-15 22:49:00,
2013-08-15 17:58:00,78.0,63.0,-100.00,North,1,5.0,8.0,61,0.00,,,0.01,366.000000,,2013-08-15 22:58:00,
2013-08-15 18:06:00,75.0,63.0,-100.00,NE,38,2.0,8.0,67,0.00,,,0.01,212.000000,,2013-08-15 23:06:00,
2013-08-15 18:48:00,75.0,63.0,-100.00,NE,38,2.0,8.0,67,0.00,,,0.01,212.000000,,2013-08-15 23:48:00,
2013-08-15 18:55:00,75.0,63.0,-100.00,NE,38,2.0,8.0,67,0.00,,,0.01,212.000000,,2013-08-15 23:55:00,
2013-08-15 19:46:00,72.0,64.0,-100.00,NNE,29,2.0,6.0,75,0.00,,,0.01,42.000000,,2013-08-16 00:46:00,
2013-08-15 19:52:00,72.0,64.0,-100.00,NNE,29,2.0,6.0,75,0.00,,,0.01,42.000000,,2013-08-16 00:52:00,
2013-08-15 20:43:00,-999.0,-99.9,-100.00,NNE,12,2.0,-999.0,-999,-99.99,,,-99.99,,,2013-08-16 01:43:00,
2013-08-15 20:54:00,69.0,63.0,-100.00,NNE,12,2.0,5.0,82,0.00,,,0.01,7.000000,,2013-08-16 01:54:00,
2013-08-15 21:02:00,69.0,63.0,-100.00,NNE,12,2.0,5.0,82,0.00,,,0.01,7.000000,,2013-08-16 02:02:00,
2013-08-15 21:44:00,67.0,65.0,-100.00,NNE,30,2.0,3.0,92,0.00,,,0.01,0.000000,,2013-08-16 02:44:00,
2013-08-15 21:52:00,67.0,65.0,-100.00,NNE,30,2.0,3.0,92,0.00,,,0.01,0.000000,,2013-08-16 02:52:00,
2013-08-15 22:03:00,67.0,65.0,-100.00,NNE,30,2.0,3.0,92,0.00,,,0.01,0.000000,,2013-08-16 03:03:00,
2013-08-15 22:43:00,65.0,63.0,-100.00,NNE,17,2.0,4.0,94,0.00,,,0.01,0.000000,,2013-08-16 03:43:00,
2013-08-15 22:53:00,65.0,63.0,-100.00,NNE,17,2.0,4.0,94,0.00,,,0.01,0.000000,,2013-08-16 03:53:00,
2013-08-15 23:03:00,65.0,63.0,-100.00,NNE,17,2.0,4.0,94,0.00,,,0.01,0.000000,,2013-08-16 04:03:00,
2013-08-15 23:43:00,65.0,62.0,-100.00,NNE,27,2.0,5.0,91,0.00,,,0.01,0.000000,,2013-08-16 04:43:00,
2013-08-15 23:54:00,65.0,62.0,-100.00,NNE,27,2.0,5.0,91,0.00,,,0.01,0.000000,,2013-08-16 04:54:00,